Regional Weather Roundup
Issued by NWS

Home | Current Version | Previous Version | Graphics & Text | Print | Product List | Glossary On
Versions: 1 2 3 4 5 6 7 8 9 10 11 12 13 14 15 16 17 18 19 20 21 22 23 24 25 26 27 28 29 30 31 32 33 34 35 36 37 38 39 40 41 42 43 44 45 46 47 48 49 50
000
ASUS43 KIND 281109
RWRIN

WEATHER ROUNDUP FOR INDIANA
NATIONAL WEATHER SERVICE INDIANAPOLIS IN
700 AM EDT TUE MAR 28 2017

NOTE: "FAIR" INDICATES FEW OR NO CLOUDS BELOW 12,000 FEET WITH NO
SIGNIFICANT WEATHER AND/OR OBSTRUCTIONS TO VISIBILITY.

* - STATION DOES NOT REPORT WEATHER SUCH AS PRECIPITATION OR FOG.

+ - STATION NOT QUALITY CONTROLLED BY THE NATIONAL WEATHER SERVICE.
    USE DATA WITH CAUTION...ESPECIALLY DEWPOINT AND RELATIVE
    HUMIDITY OBSERVATIONS.

INZ001>003-010>013-019-020-281200-
NORTHWEST INDIANA

CITY           SKY/WX    TMP DP  RH WIND       PRES   REMARKS
GARY /AIRPORT/ CLOUDY    39  37  93 N16       30.04R
KNOX *+        CLOUDY    37  30  75 N8        30.00R
LA PORTE +     CLOUDY    38  37  94 N9        30.01R
MICHIGAN CITY+ CLOUDY    37  37 100 N7        30.03R
MONTICELLO +   CLOUDY    42  39  91 N7        29.98R
RENSSELAER +   CLOUDY    39  37  93 N10       30.01R
VALPARAISO     CLOUDY    40  37  89 N9        30.02R

$$

LMZ046-743>745-281200-
SOUTHERN LAKE MICHIGAN

STATION/POSITION TIME  TEMP    WIND        PRES    WAVE
                       AIR SEA DIR/SP/G            HT
                 (UTC) (F)     (DEG/KT/KT) (MB)    (FT)
BURNS HARBOR     1040   38     360/ 11/ 15 1017.3R
MICHIGAN CITY    1040   38     360/ 12/ 13   N/A

$$

INZ004-005-014>016-021>024-281200-
NORTH CENTRAL INDIANA

CITY           SKY/WX    TMP DP  RH WIND       PRES   REMARKS
ELKHART        MOCLDY    41  39  93 N5        29.98
GOSHEN         CLOUDY    45  40  82 N12       29.97R
LOGANSPORT +   CLOUDY    43  41  93 N9        29.97R
PERU/GRISSOM   CLOUDY    46  46 100 N7        29.94R
ROCHESTER +    CLOUDY    46  43  87 N8        29.97R
SOUTH BEND     CLOUDY    40  38  93 NW8       30.00R
WARSAW +       CLOUDY    43  41  93 N6        29.97R

$$

INZ006>009-017-018-025>027-281200-
NORTHEAST INDIANA

CITY           SKY/WX    TMP DP  RH WIND       PRES   REMARKS
ANGOLA *+      CLOUDY    45  36  70 N7        29.95R
AUBURN +       CLOUDY    46  45  93 N7        29.96R FOG
FORT WAYNE     CLOUDY    49  46  90 N7        29.95R
HUNTINGTON +   CLOUDY    47  46  97 N6        29.95R
KENDALLVILLE + CLOUDY    46  44  93 N8        29.96R

$$

INZ028-029-035-036-043>045-051>053-281200-
WEST CENTRAL INDIANA

CITY           SKY/WX    TMP DP  RH WIND       PRES   REMARKS
CRAWFORDSVL +  CLOUDY    44  44 100 N5        29.96R
GREENCASTLE +  CLOUDY    46  46 100 N14       29.95R FOG
LAFAYETTE      CLOUDY    43  40  89 N8        29.98R
TERRE HAUTE    CLOUDY    50  46  86 N8        29.97R

$$

INZ030>032-037>040-046>048-054>057-064-065-281200-
CENTRAL INDIANA

CITY           SKY/WX    TMP DP  RH WIND       PRES   REMARKS
CP ATTERBURY + CLOUDY    54  52  94 N9        29.92R
COLUMBUS       CLOUDY    54  54 100 N12       29.91
FRANKFORT +    CLOUDY    47  45  92 N8        29.97R
GREENWOOD *+   CLOUDY    54  53  96 N15       29.92R
INDIANAPOLIS   CLOUDY    51  49  92 N13       29.93R FOG
-EAGLE CREEK   CLOUDY    51  48  89 N9        29.93R
KOKOMO +       CLOUDY    47  45  93 N8        29.96R
MARION +       CLOUDY    49  47  93 N9        29.95R FOG
MT COMFORT *+  CLOUDY    50  50 100 N15       29.93R
SHELBYVILLE    CLOUDY    54  51  90 N14       29.91R FOG
ZIONSVILLE +   CLOUDY    48  46  95 N9        29.94S FOG

$$

INZ033-034-041-042-049-050-058-059-281200-
EAST CENTRAL INDIANA

CITY           SKY/WX    TMP DP  RH WIND       PRES   REMARKS
MUNCIE         LGT RAIN  52  50  93 N14       29.93R FOG
RICHMOND +     CLOUDY    52  50  93 N10       29.90R FOG

$$

INZ060-061-067>069-081>083-085>088-281200-
SOUTHWEST INDIANA

CITY           SKY/WX    TMP DP  RH WIND       PRES   REMARKS
EVANSVILLE     CLOUDY    57  54  89 N6        29.94R FOG
HUNTINGBURG *+ FOG       54  54 100 NW3       29.92R VSB 1/2
WASHINGTON +   CLOUDY    55  53  92 MISG      29.93R

$$

INZ062-063-066-070>080-084-089>092-281200-
SOUTH CENTRAL AND SOUTHEAST INDIANA

CITY           SKY/WX    TMP DP  RH WIND       PRES   REMARKS
BEDFORD +      CLOUDY    55  54  94 N6        29.90R
BLOOMINGTON    CLOUDY    54  51  90 N10       29.91R
MADISON *+     CLOUDY    55  54  94 W5        29.91R
NORTH VERNON + CLOUDY   N/A N/A N/A NW7       29.89R
SEYMOUR +      CLOUDY    57  55  94 N8        29.90R

$$





USA.gov is the U.S. government's official web portal to all federal, state and local government web resources and services.